Weather History for Vancouver, BC

Change the Weather History Date:

Friday, December 21, 2012

  Actual Average Record
Temperature  
Mean Temperature 36 °F -  
Max Temperature 40 °F 40 °F 53 °F (2005)
Min Temperature 33 °F 32 °F 17 °F (1998)
Degree Days  
Heating Degree Days 28    
Moisture  
Dew Point 33 °F    
Average Humidity 86    
Maximum Humidity 93    
Minimum Humidity 71    
Precipitation  
Precipitation 0.12 in - - ()
Sea Level Pressure  
Sea Level Pressure 29.76 in    
Wind  
Wind Speed 11 mph ()    
Max Wind Speed 21 mph    
Max Gust Speed 25 mph    
Visibility 13.4 miles    
Events Rain , Snow    
Averages and records for this station are not official NWS values.
T = Trace of Precipitation, MM = Missing Value Source: Averaged Metar Reports

Daily Weather History Graph

Daily Weather History Graph

Search for Another Location

Airport:

Trip Planner

Search our weather history database for the weather conditions in past years. The results will help you decide how hot, cold, wet, or windy it might be!

Date:

Astronomy

Dec. 21, 2012 Rise Set
Actual Time 8:05 AM PST 4:17 PM PST
Civil Twilight 7:27 AM PST 4:54 PM PST
Nautical Twilight 6:46 AM PST 5:35 PM PST
Astronomical Twilight 6:07 AM PST 6:14 PM PST
Moon 12:26 PM PST (12/21) 1:35 AM PST (12/21)
Length of Visible Light 9h 27m
Length of Day
8h 11m
Waxing Gibbous, 66% of the Moon is Illuminated
Dec 21
Waxing Gibbous
Dec 28
Full
Jan 4
Last Quarter
Jan 11
New
Jan 18
First Quarter

Hourly Weather History & Observations

Time (PST) Temp. Windchill Dew Point Humidity Pressure Visibility Wind Dir Wind Speed Gust Speed Precip Events Conditions
12:00 AM 39.2 °F 31.6 °F 35.6 °F 87% 29.82 in 15.0 mi East 12.7 mph - N/A   Scattered Clouds
1:00 AM 35.6 °F 30.7 °F 32.0 °F 87% 29.82 in 15.0 mi East 5.8 mph - N/A   Scattered Clouds
2:00 AM 35.6 °F 27.5 °F 32.0 °F 87% 29.81 in 15.0 mi ENE 11.5 mph - N/A   Scattered Clouds
3:00 AM 35.6 °F 28.6 °F 32.0 °F 87% 29.80 in 15.0 mi East 9.2 mph - N/A   Mostly Cloudy
4:00 AM 35 °F - 33 °F 87% 29.79 in 15 mi East 15.0 mph - -   Scattered Clouds
4:00 AM 35.6 °F 25.2 °F 32.0 °F 87% 29.79 in 15.0 mi East 18.4 mph - N/A   Mostly Cloudy
5:00 AM 35.6 °F 26.6 °F 32.0 °F 87% 29.77 in 15.0 mi East 13.8 mph - N/A   Mostly Cloudy
6:00 AM 35.6 °F 27.1 °F 32.0 °F 87% 29.77 in 15.0 mi East 12.7 mph 18.4 mph N/A   Mostly Cloudy
7:00 AM 35.6 °F 27.1 °F 32.0 °F 87% 29.73 in 15.0 mi East 12.7 mph - N/A   Mostly Cloudy
8:00 AM 37.4 °F 28.5 °F 32.0 °F 81% 29.75 in 20.0 mi ESE 15.0 mph - N/A   Overcast
9:00 AM 37.4 °F 28.5 °F 32.0 °F 81% 29.73 in 30.0 mi East 15.0 mph - N/A   Overcast
10:00 AM 38 °F - 32 °F 71% 29.75 in 28 mi ESE 18.4 mph - -   Overcast
10:00 AM 37.4 °F 27.5 °F 32.0 °F 81% 29.75 in 30.0 mi ESE 18.4 mph - N/A   Overcast
10:09 AM 37.4 °F 27.8 °F - N/A% - 30.0 mi East 17.3 mph - N/A Rain Light Rain
11:00 AM 39.2 °F 31.6 °F 32.0 °F 75% 29.76 in 15.0 mi ESE 12.7 mph - N/A Rain Light Rain
12:00 PM 39.2 °F 31.6 °F 33.8 °F 81% 29.75 in 15.0 mi East 12.7 mph 18.4 mph N/A Rain Light Rain
1:00 PM 35.6 °F 25.9 °F 33.8 °F 93% 29.77 in 12.0 mi ESE 16.1 mph 21.9 mph N/A Rain Light Rain
1:20 PM 35.6 °F 24.5 °F - N/A% - 6.0 mi East 20.7 mph - N/A Rain Light Rain
1:25 PM 35.6 °F 24.8 °F - N/A% - 3.0 mi East 19.6 mph 25.3 mph N/A Rain , Snow Light Rain
1:45 PM 35.6 °F 24.8 °F - N/A% - 6.0 mi East 19.6 mph - N/A Rain Light Rain
1:54 PM 35.6 °F 25.5 °F - N/A% - 7.0 mi East 17.3 mph - N/A Rain Light Rain
2:00 PM 35.6 °F 25.2 °F 33.8 °F 93% 29.77 in 7.0 mi East 18.4 mph - N/A Rain Light Rain
2:42 PM 37.4 °F 29.3 °F - N/A% - 12.0 mi East 12.7 mph - N/A   Overcast
3:00 PM 37.4 °F 29.8 °F 35.6 °F 93% 29.77 in 15.0 mi East 11.5 mph - N/A   Mostly Cloudy
4:00 PM 37 °F - 34 °F 86% 29.76 in 15 mi ENE 8.1 mph - -   Partly Cloudy
4:00 PM 37.4 °F 31.4 °F 33.8 °F 87% 29.76 in 15.0 mi ENE 8.1 mph - N/A   Scattered Clouds
5:00 PM 37.4 °F 31.4 °F 33.8 °F 87% 29.76 in 15.0 mi East 8.1 mph - N/A   Mostly Cloudy
6:00 PM 37.4 °F 32.1 °F 35.6 °F 93% 29.75 in 15.0 mi ESE 6.9 mph - N/A   Overcast
7:00 PM 37.4 °F 32.1 °F 33.8 °F 87% 29.75 in 15.0 mi East 6.9 mph - N/A   Scattered Clouds
8:00 PM 35.6 °F 31.7 °F 32.0 °F 87% 29.73 in 15.0 mi East 4.6 mph - N/A   Mostly Cloudy
9:00 PM 35.6 °F 30.7 °F 33.8 °F 93% 29.73 in 15.0 mi ESE 5.8 mph - N/A   Mostly Cloudy
10:00 PM 35 °F - 33 °F 90% 29.72 in 15 mi South 2.3 mph - -   Mostly Cloudy
10:00 PM 35.6 °F 32.8 °F 33.8 °F 93% 29.72 in 15.0 mi South 3.5 mph - N/A   Mostly Cloudy
11:00 PM 35.6 °F 29.9 °F 32.0 °F 87% 29.72 in 15.0 mi SSW 6.9 mph - N/A   Mostly Cloudy